Weather History for Liberal, KS

Change the Weather History Date:

Saturday, July 13, 2013

  Actual Average Record
Temperature  
Mean Temperature 86 °F -  
Max Temperature 102 °F 94 °F 106 °F (1954)
Min Temperature 69 °F 66 °F 50 °F (1950)
Cooling Degree Days 20    
Growing Degree Days 36 (Base 50)    
Moisture  
Dew Point 52 °F    
Average Humidity 32    
Maximum Humidity 60    
Minimum Humidity 15    
Precipitation  
Precipitation 0.00 in - - ()
Sea Level Pressure  
Sea Level Pressure 30.00 in    
Wind  
Wind Speed 11 mph (South)    
Max Wind Speed 18 mph    
Max Gust Speed 28 mph    
Visibility 10 miles    
Events      
Averages and records for this station are not official NWS values.
T = Trace of Precipitation, MM = Missing Value Source: NWS Daily Summary

Daily Weather History Graph

Daily Weather History Graph

Search for Another Location

Airport:

Trip Planner

Search our weather history database for the weather conditions in past years. The results will help you decide how hot, cold, wet, or windy it might be!

Date:

Astronomy

Jul. 13, 2013 Rise Set
Actual Time 6:34 AM CDT 9:04 PM CDT
Civil Twilight 6:04 AM CDT 9:34 PM CDT
Nautical Twilight 5:27 AM CDT 10:11 PM CDT
Astronomical Twilight 4:45 AM CDT 10:52 PM CDT
Moon 11:44 AM CDT (7/13) 11:55 PM CDT (7/13)
Length of Visible Light 15h 29m
Length of Day
14h 29m
Waxing Crescent, 26% of the Moon is Illuminated
Jul 13
Waxing Crescent
Jul 15
First Quarter
Jul 22
Full
Jul 29
Last Quarter
Aug 6
New

Hourly Weather History & Observations

Time (CDT) Temp. Heat Index Dew Point Humidity Pressure Visibility Wind Dir Wind Speed Gust Speed Precip Events Conditions
12:15 AM 82.4 °F 81.7 °F 55.4 °F 39% 30.00 in 10.0 mi SSE 11.5 mph - N/A   Clear
12:35 AM 82.4 °F 81.7 °F 55.4 °F 39% 30.01 in 10.0 mi SSE 13.8 mph - N/A   Clear
12:55 AM 82.4 °F 81.7 °F 55.4 °F 39% 30.01 in 10.0 mi South 11.5 mph - N/A   Clear
1:15 AM 80.6 °F 80.5 °F 55.4 °F 42% 30.01 in 10.0 mi SSE 12.7 mph - N/A   Clear
1:35 AM 80.6 °F 80.5 °F 55.4 °F 42% 30.01 in 10.0 mi SSE 11.5 mph - N/A   Clear
1:55 AM 80.6 °F 80.3 °F 53.6 °F 39% 30.02 in 10.0 mi SSE 10.4 mph - N/A   Clear
2:15 AM 78.8 °F - 53.6 °F 42% 30.02 in 10.0 mi SSE 10.4 mph - N/A   Clear
2:35 AM 78.8 °F - 53.6 °F 42% 30.02 in 10.0 mi SSE 10.4 mph - N/A   Clear
2:55 AM 78.8 °F - 53.6 °F 42% 30.02 in 10.0 mi SSE 9.2 mph - N/A   Clear
3:15 AM 77.0 °F - 53.6 °F 44% 30.02 in 10.0 mi SSE 10.4 mph - N/A   Clear
3:35 AM 77.0 °F - 53.6 °F 44% 30.02 in 10.0 mi SSE 10.4 mph - N/A   Clear
3:55 AM 75.2 °F - 53.6 °F 47% 30.02 in 10.0 mi SSE 10.4 mph - N/A   Clear
4:15 AM 73.4 °F - 53.6 °F 50% 30.02 in 10.0 mi SSE 6.9 mph - N/A   Clear
4:35 AM 73.4 °F - 53.6 °F 50% 30.02 in 10.0 mi SSE 8.1 mph - N/A   Clear
4:55 AM 73.4 °F - 53.6 °F 50% 30.02 in 10.0 mi SSE 6.9 mph - N/A   Clear
5:15 AM 71.6 °F - 53.6 °F 53% 30.02 in 10.0 mi SSE 5.8 mph - N/A   Clear
5:35 AM 71.6 °F - 55.4 °F 57% 30.02 in 10.0 mi SSE 8.1 mph - N/A   Clear
5:55 AM 71.6 °F - 53.6 °F 53% 30.02 in 10.0 mi South 8.1 mph - N/A   Clear
6:15 AM 69.8 °F - 53.6 °F 56% 30.03 in 10.0 mi South 6.9 mph - N/A   Clear
6:35 AM 69.8 °F - 53.6 °F 56% 30.03 in 10.0 mi SSE 8.1 mph - N/A   Clear
6:55 AM 69.8 °F - 55.4 °F 60% 30.04 in 10.0 mi SSE 9.2 mph - N/A   Clear
7:15 AM 71.6 °F - 55.4 °F 57% 30.04 in 10.0 mi SSE 8.1 mph - N/A   Clear
7:35 AM 73.4 °F - 55.4 °F 53% 30.04 in 10.0 mi SSE 8.1 mph - N/A   Clear
7:55 AM 73.4 °F - 55.4 °F 53% 30.04 in 10.0 mi SSE 11.5 mph - N/A   Clear
8:15 AM 77.0 °F - 57.2 °F 50% 30.04 in 10.0 mi SSE 15.0 mph - N/A   Clear
8:35 AM 78.8 °F - 57.2 °F 47% 30.04 in 10.0 mi SSE 12.7 mph - N/A   Clear
8:55 AM 82.4 °F 82.0 °F 57.2 °F 42% 30.04 in 10.0 mi South 16.1 mph - N/A   Clear
9:15 AM 84.2 °F 83.5 °F 57.2 °F 40% 30.04 in 10.0 mi South 17.3 mph - N/A   Clear
9:35 AM 86.0 °F 84.9 °F 57.2 °F 37% 30.04 in 10.0 mi SSW 16.1 mph - N/A   Clear
9:55 AM 87.8 °F 86.1 °F 55.4 °F 33% 30.04 in 10.0 mi SSW 17.3 mph 23.0 mph N/A   Clear
10:15 AM 89.6 °F 87.7 °F 55.4 °F 31% 30.04 in 10.0 mi SSW 17.3 mph - N/A   Clear
10:35 AM 91.4 °F 89.4 °F 55.4 °F 29% 30.03 in 10.0 mi SW 18.4 mph - N/A   Clear
10:55 AM 93.2 °F 91.3 °F 55.4 °F 28% 30.03 in 10.0 mi SW 15.0 mph 23.0 mph N/A   Clear
11:15 AM 96.8 °F 95.8 °F 57.2 °F 27% 30.02 in 10.0 mi SSW 16.1 mph 20.7 mph N/A   Clear
11:35 AM 96.8 °F 95.1 °F 55.4 °F 25% 30.02 in 10.0 mi SSW 15.0 mph 20.7 mph N/A   Clear
11:55 AM 98.6 °F 97.2 °F 55.4 °F 24% 30.02 in 10.0 mi SSW 17.3 mph - N/A   Clear
12:15 PM 98.6 °F 97.2 °F 55.4 °F 24% 30.02 in 10.0 mi SSW 15.0 mph 21.9 mph N/A   Clear
12:35 PM 98.6 °F 97.2 °F 55.4 °F 24% 30.02 in 10.0 mi SSW 11.5 mph - N/A   Clear
12:55 PM 100.4 °F 98.8 °F 55.4 °F 22% 30.01 in 10.0 mi SSW 16.1 mph 24.2 mph N/A   Clear
1:15 PM 100.4 °F 98.8 °F 55.4 °F 22% 30.01 in 10.0 mi South 13.8 mph 24.2 mph N/A   Clear
1:35 PM 100.4 °F 98.8 °F 55.4 °F 22% 30.01 in 10.0 mi South 12.7 mph 25.3 mph N/A   Clear
1:55 PM 102.2 °F 100.9 °F 55.4 °F 21% 30.00 in 10.0 mi South 9.2 mph 19.6 mph N/A   Clear
2:15 PM 102.2 °F 100.9 °F 55.4 °F 21% 29.99 in 10.0 mi SW 15.0 mph 20.7 mph N/A   Clear
2:35 PM 102.2 °F 100.9 °F 55.4 °F 21% 29.99 in 10.0 mi South 6.9 mph 21.9 mph N/A   Partly Cloudy
2:55 PM 100.4 °F 98.4 °F 53.6 °F 21% 29.98 in 10.0 mi SSE 11.5 mph 27.6 mph N/A   Clear
3:15 PM 102.2 °F 100.4 °F 53.6 °F 20% 29.98 in 10.0 mi South 11.5 mph 18.4 mph N/A   Clear
3:35 PM 102.2 °F 100.4 °F 53.6 °F 20% 29.97 in 10.0 mi SSE 11.5 mph 18.4 mph N/A   Clear
3:55 PM 102.2 °F - 51.8 °F 18% 29.97 in 10.0 mi SSW 12.7 mph 24.2 mph N/A   Clear
4:15 PM 102.2 °F - 51.8 °F 18% 29.97 in 10.0 mi SSE 9.2 mph 18.4 mph N/A   Clear
4:35 PM 102.2 °F - 50.0 °F 17% 29.96 in 10.0 mi SSW 6.9 mph 21.9 mph N/A   Clear
4:55 PM 102.2 °F - 50.0 °F 17% 29.96 in 10.0 mi SW 12.7 mph - N/A   Clear
5:15 PM 102.2 °F - 50.0 °F 17% 29.95 in 10.0 mi South 18.4 mph 21.9 mph N/A   Partly Cloudy
5:35 PM 102.2 °F - 50.0 °F 17% 29.95 in 10.0 mi SSW 12.7 mph - N/A   Partly Cloudy
5:55 PM 102.2 °F - 50.0 °F 17% 29.95 in 10.0 mi South 15.0 mph 20.7 mph N/A   Partly Cloudy
6:15 PM 102.2 °F - 48.2 °F 16% 29.94 in 10.0 mi South 9.2 mph 19.6 mph N/A   Clear
6:35 PM 102.2 °F - 46.4 °F 15% 29.93 in 10.0 mi South 13.8 mph 18.4 mph N/A   Clear
6:55 PM 100.4 °F - 46.4 °F 16% 29.93 in 10.0 mi South 15.0 mph - N/A   Clear
7:15 PM 100.4 °F - 46.4 °F 16% 29.93 in 10.0 mi SSW 11.5 mph 17.3 mph N/A   Clear
7:35 PM 100.4 °F - 46.4 °F 16% 29.93 in 10.0 mi SSW 12.7 mph - N/A   Clear
7:55 PM 100.4 °F - 46.4 °F 16% 29.93 in 10.0 mi South 11.5 mph - N/A   Clear
8:15 PM 98.6 °F - 46.4 °F 17% 29.93 in 10.0 mi South 11.5 mph - N/A   Clear
8:35 PM 96.8 °F - 44.6 °F 17% 29.93 in 10.0 mi South 6.9 mph - N/A   Clear
8:55 PM 91.4 °F - 46.4 °F 21% 29.93 in 10.0 mi South 6.9 mph - N/A   Clear
9:15 PM 89.6 °F - 44.6 °F 21% 29.94 in 10.0 mi South 9.2 mph - N/A   Clear
9:35 PM 89.6 °F - 46.4 °F 22% 29.95 in 10.0 mi SSE 10.4 mph - N/A   Clear
9:55 PM 89.6 °F - 44.6 °F 21% 29.95 in 10.0 mi SSE 10.4 mph - N/A   Clear
10:15 PM 89.6 °F - 44.6 °F 21% 29.96 in 10.0 mi SSE 9.2 mph - N/A   Clear
10:35 PM 86.0 °F - 44.6 °F 23% 29.97 in 10.0 mi SSE 8.1 mph - N/A   Clear
10:55 PM 84.2 °F - 44.6 °F 25% 29.97 in 10.0 mi SSE 9.2 mph - N/A   Clear
11:15 PM 82.4 °F - 44.6 °F 26% 29.98 in 10.0 mi South 9.2 mph - N/A   Clear
11:35 PM 80.6 °F - 46.4 °F 30% 29.98 in 10.0 mi South 10.4 mph - N/A   Clear
11:55 PM 80.6 °F - 46.4 °F 30% 29.98 in 10.0 mi South 8.1 mph - N/A   Clear